Winter Gaming Leaderboard


Switch to 555


Top Killers
Last Kills
Longest Shots
Player History
XP
Humanity



Player History
No. Time Killer Weapon Victim Meters
 
1. 2022-01-15 23:54:30 Lolik Pecheneg_DZ Manifest 231m
2. 2022-01-11 16:30:13 Simon CZ805_B_GL_DZ flole 9m
3. 2022-01-11 16:16:57 NightKrow VSS_vintorez flole 187m
4. 2022-01-10 22:46:01 Seprage Pecheneg_DZ flole 122m
5. 2022-01-10 22:34:06 flole Sa58V_Camo_ACOG_DZ levni 111m
6. 2022-01-10 22:22:29 [BLR]LomtickOre MK17_ACOG_SD_DZ flole 12m
7. 2022-01-09 18:49:26 WymiataczPL Anzio_20_DZ flole 1479m
8. 2022-01-09 18:10:27 Dewtoo PMC_AS50_scoped flole 477m
9. 2022-01-09 17:48:03 flole CZ_75_SP_01_PHANTOM Shaitan 3m
10. 2022-01-09 15:38:59 Fake do Italia SteyrAug_A3_ACOG_Black_DZ flole 17m
11. 2022-01-08 16:26:45 Gera UH1Y_DZE LOL 679m
12. 2022-01-08 14:11:14 Enqu AH6J_EP1_DZ LOL 86m
13. 2022-01-08 14:06:22 LOL AH6J_EP1_DZ ~Bob 133m
14. 2022-01-08 14:05:10 LOL AH6J_EP1_DZ WymiataczPL 412m
15. 2022-01-08 13:47:10 LOL AH6J_EP1_DZ Enqu 800m
16. 2022-01-08 13:42:14 LOL AH6J_EP1_DZ Benjano 244m
17. 2022-01-08 13:18:43 jeann DMR_Gh_DZ LOL 5m
18. 2022-01-08 13:16:34 bio AK107_DZ LOL 4m
19. 2022-01-08 13:15:44 LOL VSS_vintorez crest 142m
20. 2022-01-08 13:12:12 LOL VSS_vintorez Vadim Lee 155m
21. 2022-01-08 12:21:05 LOL FNFAL_DZ Matvey 39m
22. 2022-01-08 11:21:40 isBrilleKFDF GAZ_Vodnik_HMG LOL 212m
23. 2022-01-08 11:21:15 LOL AH6J_EP1_DZ Chris 483m
24. 2022-01-08 09:30:38 DGUGYRDA Mk48_Holo_DZ LOL 55m
25. 2022-01-08 09:08:11 Chris GAZ_Vodnik_HMG LOL 373m
26. 2021-12-30 14:33:04 USTA M24_DES_DZ LOL 149m
27. 2021-12-22 03:56:03 Dark_Templar Colt_Python_DZ Sgt.LoL 28m
28. 2021-12-21 16:09:05 [7]Slaffka VSS_vintorez lolka 173m
29. 2021-12-21 15:47:49 lolka M240_DZ Funsl 125m
30. 2021-12-21 15:47:19 lolka M240_DZ NightKrow 108m
31. 2021-12-21 15:40:06 MILLENNIALSHATER SCAR_H_LNG_Sniper lolka (2) 81m
32. 2021-12-21 15:39:05 lolka CZ_75_SP_01_PHANTOM Andrey 44m
33. 2021-12-21 15:34:44 Selena gomez m107_DZ lolka 631m
34. 2021-12-19 20:32:26 lolka M16A4_ACOG_FL_DZ AKULA 85m
35. 2021-12-19 19:22:24 lolka M16A4_ACOG_FL_DZ EVS 86m
36. 2021-12-19 18:37:36 Nikos1820 AKM_DZ lolka 9m
37. 2021-12-19 18:35:26 lolka SVD_DZ Q 6m
38. 2021-12-19 17:57:41 astrony MK43_M145_DZ lolka 190m
39. 2021-12-19 17:50:42 DGUGYRDA Groza1_Sniper_SD_DZ lolka 40m
40. 2021-12-19 17:49:03 lolka LeeEnfield_DZ berge 185m
41. 2021-12-19 17:10:20 Dewtoo M110_NV_DZ lolka 216m
42. 2021-12-19 17:00:50 uki DMR_DZ lolka 4m
43. 2021-12-19 16:58:14 MOCKA/\Ь VAL_PSO1_DZ lolka 410m
44. 2021-12-18 18:09:36 KoJLxo3nuk M110_NV_DZ lolka 9m
45. 2021-11-17 22:17:22 Flamberge AKM_DZ PLAYER lol 25m
46. 2021-11-17 21:52:59 Gumer MK14_Sniper_SD_DZ PLAYER lol 431m
47. 2021-11-17 21:46:42 jony Pecheneg_DZ PLAYER lol 240m
48. 2021-11-17 21:34:29 PLAYER lol CZ_75_SP_01_PHANTOM NE smarchok 2m
49. 2021-09-24 00:16:30 lol m107_DZ danil 730m